Skip Page Navigation
NASA JPL Caltech
NASA Logo - Jet Propulsion Laboratory + View the NASA Portal
+ Center for Near-Earth Object Studies
JPL Home Earth Solar System Stars & Galaxies Technology
JPL Solar System Dynamics
BODIES ORBITS EPHEMERIDES TOOLS PHYSICAL DATA DISCOVERY FAQ SITE MAP
IMPORTANT: The SSD Announcement email list is now available. Major changes are coming in the near future, including possible hostname and/or URL changes. To be notified of such changes, subscribe to this email list.

Please visit this page for more details.


JPL Small-Body Database Browser
Search: [ help ]  
390114 (2012 VW35)
Classification: Main-belt Asteroid          SPK-ID: 2390114
Ephemeris | Orbit Diagram | Orbital Elements | Mission Design | Physical Parameters | Discovery Circumstances | Close-Approach Data ]

[ show orbit diagram ]
Orbital Elements at Epoch 2458600.5 (2019-Apr-27.0) TDB
Reference: JPL 13 (heliocentric ecliptic J2000)
 Element Value Uncertainty (1-sigma)   Units 
e .06737785161846006 5.1703e-08  
a 2.725361193644354 2.8585e-08 au
q 2.541732211532275 1.4027e-07 au
i 5.279209060115382 7.0525e-06 deg
node 159.8873800292761 7.4488e-05 deg
peri 308.4812970564535 0.00010379 deg
M 107.3005138542686 7.1165e-05 deg
tp 2458110.683027727582
(2017-Dec-23.18302773)
0.00032203 TDB
period 1643.366873876864
4.50
2.5855e-05
7.079e-08
d
yr
n .2190624660400539 3.4465e-09 deg/d
Q 2.908990175756432 3.0511e-08 au
  Orbit Determination Parameters
   # obs. used (total)      125  
   data-arc span      8478 days (23.21 yr)  
   first obs. used      1996-03-11  
   last obs. used      2019-05-28  
   planetary ephem.      DE431  
   SB-pert. ephem.      SB431-N16  
   condition code      0  
   norm. resid. RMS      .58915  
   source      ORB  
   producer      Otto Matic  
   solution date      2019-Sep-24 07:06:40  

Additional Information
 Earth MOID = 1.56263 au 
 Jupiter MOID = 2.16117 au 
 T_jup = 3.347 
[ show covariance matrix ]

Ephemeris | Orbit Diagram | Orbital Elements | Mission Design | Physical Parameters | Discovery Circumstances | Close-Approach Data ]

Physical Parameter Table
Parameter Symbol Value Units Sigma Reference Notes
absolute magnitude H 16.8   n/a MPO476836  

390114 (2012 VW35)          Discovered 1996-Mar-11 by Spacewatch at Kitt Peak
Reference: Last Updated: 2014-03-21

[ show close-approach data ]
Alternate Designations
 2012 VW35 = 1996 EE4 = 2005 EN272 
Ephemeris | Orbit Diagram | Orbital Elements | Mission Design | Physical Parameters | Discovery Circumstances | Close-Approach Data ]
ABOUT SSD CREDITS/AWARDS PRIVACY/COPYRIGHT GLOSSARY LINKS
FirstGov 2020-Jan-26 02:32 UT
(server date/time)  
NASA Home Page
Site Manager:   Ryan S. Park
Webmaster  Alan B. Chamberlin